Other Public Products
Issued by NWS Grand Forks, ND

Home | Current Version | Previous Version | Graphics & Text | Print | Product List | Glossary On
Versions: 1 2 3 4 5 6 7 8 9 10 11 12 13 14 15 16 17 18 19 20 21 22 23 24 25 26 27 28 29 30 31 32 33 34 35 36 37 38 39 40 41 42 43 44 45 46 47 48 49 50
559
FPUS83 KFGF 220031
OPUFGF
PRAIRIE TO PINES WEATHER ROUNDUP
NATIONAL WEATHER SERVICE EASTERN NORTH DAKOTA/GRAND FORKS ND
600 PM CST TUE FEB 21 2017

 **SATELLITE DATA USED TO AUGMENT SKY COVER AT AUTOMATED STATIONS**
 *****  WEATHER ACROSS EASTERN NORTH DAKOTA  *****

CITY           SKY/WX    TMP DP  RH WIND       PRES   REMARKS
GRAND FORKS    FOG       35  31  85 NW5       29.68R VSB 1/4
6HR MIN TEMP:  35; 6HR MAX TEMP:  46;

GRAND FORKS AF FOG       32  32 100 W6        29.69R VSB 1/2
GRAND CITY NWS NOT AVBL
BUXTON         NOT AVBL
DEVILS LAKE    LGT RAIN  37  33  85 S5        29.66S
6HR MIN TEMP:  36; 6HR MAX TEMP:  40; 6HR PCP: TRACE;

FARGO          CLOUDY    44  40  85 SW3       29.67R
6HR MIN TEMP:  43; 6HR MAX TEMP:  48;

WAHPETON ARPT    N/A     46  39  76 CALM      29.68S
$$

 *****  WEATHER ACROSS CENTRAL AND WESTERN NORTH DAKOTA  *****

CITY           SKY/WX    TMP DP  RH WIND       PRES   REMARKS
JAMESTOWN      CLOUDY    41  37  86 N3        29.65S
6HR MIN TEMP:  41; 6HR MAX TEMP:  47;

BISMARCK       FAIR      46  37  71 NE6       29.65S
6HR MIN TEMP:  46; 6HR MAX TEMP:  55;

MINOT          CLOUDY    44  36  73 NW6       29.63S
6HR MIN TEMP:  44; 6HR MAX TEMP:  48;

MINOT AFB      FAIR      37  34  88 CALM      29.63R
6HR MIN TEMP:  37; 6HR MAX TEMP:  42;

GARRISON         N/A     42  37  82 W8        29.64S
6HR MIN TEMP:  40; 6HR MAX TEMP:  46; 6HR PCP:  0.01;

WILLISTON      LGT RAIN  42  32  67 W16G24    29.67R
6HR MIN TEMP:  39; 6HR MAX TEMP:  47; 6HR PCP: TRACE;

DICKINSON      MOCLDY    46  33  60 NE7       29.63R
6HR MIN TEMP:  46; 6HR MAX TEMP:  55;

HETTINGER      FAIR      49  36  61 NE13      29.61F
6HR MIN TEMP:  52; 6HR MAX TEMP:  65;

$$

 *****  OTHER OBSERVATIONS NORTHEAST NORTH DAKOTA  *****

CITY           SKY/WX    TMP DP  RH WIND       PRES   REMARKS
WALHALLA       NOT AVBL
LANGDON        NOT AVBL
CAVALIER       FOG       32  32 100 N5        29.69R VSB<1/4
GRAFTON        FOG       30  30 100 CALM      29.71R VSB<1/4
CANDO          NOT AVBL
FORT TOTTEN      N/A     38  35  87 S3        29.95
ROLLA          FAIR      32  32 100 S5        29.65S FOG
RUGBY            N/A     32  32 100 CALM      29.66R
 ***** THE ABOVE OBSERVATIONS ARE NON NWS ARE NOT QUALITY
        CONTROLLED AND MAY MIS-REPORT RAIN FOR SNOW...
$$

 *****  OTHER OBSERVATIONS SOUTHEAST NORTH DAKOTA *****

CITY           SKY/WX    TMP DP  RH WIND       PRES   REMARKS
COOPERSTOWN    FAIR      36  34  93 N8        29.67S
VALLEY CITY    CLOUDY    39  39 100 N6        29.68S
OAKES          NOT AVBL
GWINNER        FAIR      48  41  76 NW7       29.67F
SHEYENNE NWR     N/A     49  38  66 NW3       29.95S
BUFFALO        NOT AVBL
WYNDMERE         N/A     46  45  93 NE3         N/A
 ***** THE ABOVE OBSERVATIONS ARE NON NWS ARE NOT QUALITY
       CONTROLLED AND MAY MIS-REPORT RAIN FOR SNOW...
$$

  *****  WEATHER ACROSS NORTHERN MINNESOTA  *****

CITY           SKY/WX    TMP DP  RH WIND       PRES   REMARKS
FLAG ISLAND    FAIR      34  30  86 CALM      29.68R
WARROAD        FAIR      32  28  86 CALM      29.68R
ROSEAU         FAIR      36  30  80 E5        29.67R
HALLOCK        FAIR      34  32  93 CALM      29.67S FOG
THF RVR FALLS  FAIR      39  36  89 W6        29.67R
6HR MIN TEMP:  38; 6HR MAX TEMP:  46;

HALSTAD          N/A     40  39  97 SW2         N/A
FOSSTON        FAIR      37  36  93 SW3       29.67S
BAUDETTE       FAIR      39  32  76 CALM      29.65S
6HR MIN TEMP:  34; 6HR MAX TEMP:  43;

WASKISH        FAIR      37  36  93 CALM      29.65S
CROOKSTON      FAIR      36  36 100 NW6       29.68R FOG
$$
  *****  WEATHER ACROSS CENTRAL AND WEST MINNESOTA  *****

CITY           SKY/WX    TMP DP  RH WIND       PRES   REMARKS
BEMIDJI        FAIR      43  34  69 W5        29.65S
PARK RAPIDS    MOCLDY    42  34  73 SW5       29.65F
6HR MIN TEMP:  41; 6HR MAX TEMP:  47;

WADENA         FAIR      41  37  87 SW3       29.67R
DETROIT LAKES  FAIR      43  37  81 W3        29.68R
MOORHEAD       FAIR      45  39  81 CALM      29.69S
FERGUS FALLS   MOCLDY    45  43  93 CALM      29.71R
ELBOW LAKE     MOCLDY    45  43  95 S3        29.69S
MORRIS MN      FAIR      50  45  81 CALM      29.68S
STAPLES          N/A     43  37  81 SW3       29.68S
WHEATON        FAIR      48  43  81 E3        29.70S
$$
  *****  WEATHER ELSEWHERE ACROSS MINNESOTA  *****

CITY           SKY/WX    TMP DP  RH WIND       PRES   REMARKS
DULUTH         FAIR      47  35  63 S3        29.68S
6HR MIN TEMP:  40; 6HR MAX TEMP:  50;

INTRNTL FALLS  FAIR      38  32  79 NE5       29.66R
6HR MIN TEMP:  37; 6HR MAX TEMP:  45;

ELY            FAIR      45  30  57 S3        29.67S
CLOQUET        FAIR      45  36  70 CALM      29.69R
BRAINERD       FAIR      46  39  76 S7        29.67S
6HR MIN TEMP:  46; 6HR MAX TEMP:  52;

HIBBING        FAIR      42  33  70 S3        29.66S
6HR MIN TEMP:  36; 6HR MAX TEMP:  49;

ALEXANDRIA     FAIR      48  41  76 SW5       29.69S
6HR MIN TEMP:  47; 6HR MAX TEMP:  52;

SAINT CLOUD    FAIR      50  44  80 SW5       29.69S
6HR MIN TEMP:  50; 6HR MAX TEMP:  56;

MINNEAPOLIS    MOCLDY    59  45  59 S8        29.70F
6HR MIN TEMP:  53; 6HR MAX TEMP:  62;

$$

  *****  WEATHER ACROSS SOUTH DAKOTA  *****

CITY           SKY/WX    TMP DP  RH WIND       PRES   REMARKS
SIOUX FALLS    FAIR      58  40  51 CALM      29.70F
6HR MIN TEMP:  57; 6HR MAX TEMP:  68;

BROOKINGS      FAIR      59  41  51 SW3         N/A
WATERTOWN      FAIR      52  42  69 CALM      29.68F
6HR MIN TEMP:  49; 6HR MAX TEMP:  58;

HURON          FAIR      63  35  35 S6        29.65F
6HR MIN TEMP:  59; 6HR MAX TEMP:  69;

SISSETON         N/A     54  44  69 SW3       29.67R
ABERDEEN       FAIR      54  40  59 SE5       29.65F
6HR MIN TEMP:  51; 6HR MAX TEMP:  64;

MITCHELL       FAIR      63  38  39 S5        29.68F
PIERRE         FAIR      60  36  40 SE8       29.61F
6HR MIN TEMP:  60; 6HR MAX TEMP:  70;

MOBRIDGE       FAIR      56  38  50 E12       29.59F
RAPID CITY     FAIR      66  26  22 W29G37    29.66S
6HR MIN TEMP:  66; 6HR MAX TEMP:  72;

$$

  *****  SOME WEATHER IN NEARBY STATES *****

CITY           SKY/WX    TMP DP  RH WIND       PRES   REMARKS
GLASGOW MT     CLOUDY    40  37  89 NW12      29.66F
6HR MIN TEMP:  40; 6HR MAX TEMP:  47; 6HR PCP:  0.09;

GREAT FALLS MT CLOUDY    37  36  96 NE8       29.63S VSB 1/4
6HR MIN TEMP:  39; 6HR MAX TEMP:  45; 6HR PCP:  0.01;

CHEYENNE WY    FAIR      56  17  21 W20G28    29.96F
6HR MIN TEMP:  56; 6HR MAX TEMP:  62;

SCOTTSBLUFF NE FAIR      68  18  14 W18G31    29.83S
6HR MIN TEMP:  68; 6HR MAX TEMP:  73;

OMAHA NE       FAIR      67  37  33 S13       29.81S
6HR MIN TEMP:  61; 6HR MAX TEMP:  72;

DES MOINES IA  FAIR      60  34  37 S10       29.84F
6HR MIN TEMP:  60; 6HR MAX TEMP:  68;

DAVENPORT IA   FAIR      59  44  57 NW3       29.89F
6HR MIN TEMP:  57; 6HR MAX TEMP:  65;

CHICAGO IL     MOCLDY    62  50  64 SW3       29.89S
6HR MIN TEMP:  62; 6HR MAX TEMP:  66;

EAU CLAIRE WI  FAIR      54  37  52 S9        29.74S
6HR MIN TEMP:  46; 6HR MAX TEMP:  59;

LA CROSSE WI   FAIR      57  36  45 S13       29.79F
6HR MIN TEMP:  52; 6HR MAX TEMP:  62;

$$

  *****  SOME NATIONAL WEATHER *****

CITY           SKY/WX    TMP DP  RH WIND       PRES   REMARKS
LA GUARDIA NY  CLOUDY    44  31  60 S14       30.22S
RALEIGH NC     CLOUDY    57  34  41 E5        30.16R



USA.gov is the U.S. government's official web portal to all federal, state and local government web resources and services.